DW2959 Murcia ES current weather conditions

sailwx.info

Wind from 194

Air temperature 12.8° C
Dewpoint 6.6° C

Last reported at 2016-Feb-12 04:33 UTC.
Time now 2016-Feb-12 05:39 UTC

Location: N 38°00' W 001°02'.
View on Google Maps.

See reports from other nearby stations

  
Tides and Currents Weather Stations Pressure Air Temp Water Temp Dewpoint Dewpoint Depression Visibility Wind Speed Wind Dir Waves Ship Positions
date/time (UTC)wind fromknots sea level pressurealtimeterstation pressurevisibilityair tempwater tempwave heightnotes
2016-Feb-12 04:33 194 12.8
2016-Feb-12 04:19 194 13.3
2016-Feb-12 04:03 194 0 gusting 3 13.3
2016-Feb-12 03:48 194 0 gusting 2 13.3
2016-Feb-12 03:33 194 13.3
2016-Feb-12 03:17 194 0 gusting 3 13.3
2016-Feb-12 03:02 229 13.9
2016-Feb-12 02:47 219 1 gusting 3 15.0
2016-Feb-12 02:36 219 1 gusting 4 15.0
2016-Feb-12 02:16 218 3 gusting 6 15.0
2016-Feb-12 02:02 209 3 gusting 6 15.0
2016-Feb-12 01:47 230 3 gusting 6 14.4
2016-Feb-12 01:32 210 1 gusting 6 13.3
2016-Feb-12 01:16 219 0 gusting 4 13.3
2016-Feb-12 01:01 218 13.9
2016-Feb-12 00:46 218 3 gusting 6 14.4
2016-Feb-12 00:30 219 3 gusting 6 15.0
2016-Feb-12 00:16 232 2 gusting 4 15.6
2016-Feb-12 00:01 229 3 gusting 5 15.6
2016-Feb-11 23:45 229 15.0
2016-Feb-11 23:31 229 15.6
2016-Feb-11 23:20 229 15.6
2016-Feb-11 22:59 229 16.1
2016-Feb-11 22:44 229 0 gusting 5 16.7
2016-Feb-11 22:30 231 2 gusting 5 16.7
2016-Feb-11 22:14 233 16.7
2016-Feb-11 21:58 233 1 gusting 5 17.2
2016-Feb-11 21:44 234 0 gusting 5 17.8
2016-Feb-11 21:29 272 0 gusting 5 17.2
2016-Feb-11 21:13 269 17.2
2016-Feb-11 20:59 269 0 gusting 6 17.2
2016-Feb-11 20:43 292 17.2
2016-Feb-11 20:29 292 1 gusting 3 17.2
2016-Feb-11 20:13 292 0 gusting 4 18.3
2016-Feb-11 19:58 292 1 gusting 3 18.3
2016-Feb-11 19:43 292 0 gusting 6 19.4
2016-Feb-11 19:27 294 3 gusting 10 20.0
2016-Feb-11 19:12 280 6 gusting 10 20.6
2016-Feb-11 18:59 291 6 gusting 14 20.6
2016-Feb-11 18:42 292 5 gusting 9 20.0
2016-Feb-11 18:28 285 4 gusting 10 20.6
2016-Feb-11 18:11 279 6 gusting 12 21.1
2016-Feb-11 17:56 287 6 gusting 10 21.7
2016-Feb-11 17:41 294 8 gusting 14 22.2
2016-Feb-11 17:26 280 6 gusting 13 22.2
2016-Feb-11 17:11 276 10 gusting 19 22.8
2016-Feb-11 16:57 298 12 gusting 19 23.3
2016-Feb-11 16:41 282 9 gusting 18 23.9
2016-Feb-11 16:26 286 7 gusting 13 23.9
2016-Feb-11 16:10 320 8 gusting 16 24.4
2016-Feb-11 15:56 306 10 gusting 15 24.4
2016-Feb-11 15:42 296 11 gusting 17 24.4
2016-Feb-11 15:25 326 6 gusting 18 23.9
2016-Feb-11 15:10 265 8 gusting 13 24.4
2016-Feb-11 14:54 272 9 gusting 15 24.4
2016-Feb-11 14:40 290 9 gusting 13 24.4
2016-Feb-11 14:25 271 8 gusting 12 24.4
2016-Feb-11 14:09 260 5 gusting 13 23.9
2016-Feb-11 13:55 277 7 gusting 13 23.9
2016-Feb-11 13:39 262 7 gusting 12 23.3
2016-Feb-11 13:25 245 6 gusting 13 23.9
2016-Feb-11 13:09 219 6 gusting 10 23.3
2016-Feb-11 12:54 236 1 gusting 7 23.9
2016-Feb-11 12:39 265 2 gusting 10 23.3
2016-Feb-11 12:26 259 5 gusting 10 22.8
2016-Feb-11 12:08 227 0 gusting 6 22.2
2016-Feb-11 11:53 232 2 gusting 7 21.7
2016-Feb-11 11:37 263 21.1
2016-Feb-11 11:23 265 0 gusting 3 20.0
2016-Feb-11 11:07 265 0 gusting 2 18.9
2016-Feb-11 10:52 265 18.9
2016-Feb-11 10:37 265 18.3
2016-Feb-11 10:21 265 17.8
2016-Feb-11 10:07 255 17.2
2016-Feb-11 09:51 288 16.7
2016-Feb-11 09:37 288 16.1
2016-Feb-11 09:21 286 15.6
2016-Feb-11 09:09 286 15.6
2016-Feb-11 08:51 286 15.0
2016-Feb-11 08:37 286 15.0
2016-Feb-11 08:21 286 14.4
2016-Feb-11 08:05 286 0 gusting 3 13.3
2016-Feb-11 07:51 292 0 gusting 3 13.9
2016-Feb-11 07:35 290 14.4
2016-Feb-11 07:21 290 14.4
2016-Feb-11 07:05 290 15.0
2016-Feb-11 06:49 290 15.0
2016-Feb-11 06:35 290 15.6
2016-Feb-11 06:19 290 15.0
2016-Feb-11 06:05 290 15.6
2016-Feb-11 05:54 290 15.6
2016-Feb-11 05:33 290 15.6
2016-Feb-11 05:19 290 16.7
2016-Feb-11 05:03 291 16.1
2016-Feb-11 04:50 291 16.1
2016-Feb-11 04:33 290 16.1
2016-Feb-11 04:18 290 16.7
2016-Feb-11 04:02 291 0 gusting 4 16.1
2016-Feb-11 03:47 296 15.6
2016-Feb-11 03:32 296 1 gusting 4 15.6
2016-Feb-11 03:17 296 1 gusting 3 16.1
2016-Feb-11 03:02 294 0 gusting 4 16.1
2016-Feb-11 02:46 285 16.7
2016-Feb-11 02:32 286 16.7
2016-Feb-11 02:17 286 1 gusting 6 16.7
2016-Feb-11 02:02 286 1 gusting 3 16.7
2016-Feb-11 01:47 286 16.7
2016-Feb-11 01:35 286 3 gusting 6 17.2
2016-Feb-11 01:16 234 17.2
2016-Feb-11 01:01 233 2 gusting 4 17.2
2016-Feb-11 00:46 233 1 gusting 5 16.7
2016-Feb-11 00:31 231 1 gusting 6 16.7
2016-Feb-11 00:16 229 16.1
2016-Feb-11 00:00 228 2 gusting 5 15.6
2016-Feb-10 23:46 296 2 gusting 7 17.2
2016-Feb-10 23:30 303 4 gusting 6 17.8
2016-Feb-10 23:15 311 3 gusting 6 17.8
2016-Feb-10 22:59 286 17.2
2016-Feb-10 22:44 286 16.7
2016-Feb-10 22:29 286 16.7
2016-Feb-10 22:14 286 2 gusting 6 16.7
2016-Feb-10 21:59 276 4 gusting 7 16.7
2016-Feb-10 21:44 263 17.2
2016-Feb-10 21:29 263 17.8
2016-Feb-10 21:15 263 1 gusting 3 17.8
2016-Feb-10 20:59 262 18.3
2016-Feb-10 20:43 262 0 gusting 3 18.3
2016-Feb-10 20:28 262 0 gusting 10 18.9
2016-Feb-10 20:13 265 6 gusting 10 19.4
2016-Feb-10 19:58 264 1 gusting 6 19.4
2016-Feb-10 19:43 259 0 gusting 6 20.0
2016-Feb-10 19:28 257 6 gusting 11 20.6
2016-Feb-10 19:13 231 5 gusting 15 20.6
2016-Feb-10 18:58 265 2 gusting 7 20.6
2016-Feb-10 18:43 263 5 gusting 10 20.0
2016-Feb-10 18:28 273 2 gusting 6 19.4
2016-Feb-10 18:13 286 20.0
2016-Feb-10 17:58 286 1 gusting 3 20.0
2016-Feb-10 17:42 285 3 gusting 7 20.6
2016-Feb-10 17:27 302 5 gusting 10 21.1
2016-Feb-10 17:12 279 4 gusting 6 21.1
2016-Feb-10 16:57 273 5 gusting 7 21.7
2016-Feb-10 16:42 275 0 gusting 6 21.7
2016-Feb-10 16:27 268 5 gusting 8 22.2
2016-Feb-10 16:12 246 1 gusting 8 22.2
2016-Feb-10 15:57 226 4 gusting 10 22.8
2016-Feb-10 15:42 254 10 gusting 14 23.3
2016-Feb-10 15:27 265 10 gusting 16 23.3
2016-Feb-10 15:11 238 11 gusting 18 23.3
2016-Feb-10 14:56 256 6 gusting 15 23.3
2016-Feb-10 14:41 286 7 gusting 13 23.3
2016-Feb-10 14:26 275 6 gusting 10 22.8
2016-Feb-10 14:11 265 4 gusting 13 22.2
2016-Feb-10 13:57 255 3 gusting 8 21.7
2016-Feb-10 13:41 264 6 gusting 10 21.1
2016-Feb-10 13:26 257 5 gusting 12 21.1
2016-Feb-10 13:11 221 2 gusting 8 20.6
2016-Feb-10 12:55 234 3 gusting 9 20.6
2016-Feb-10 12:40 234 3 gusting 12 20.6
2016-Feb-10 12:25 234 4 gusting 11 20.6
2016-Feb-10 12:10 281 1 gusting 3 20.0
2016-Feb-10 11:55 281 2 gusting 7 19.4
2016-Feb-10 11:40 260 2 gusting 6 19.4
2016-Feb-10 11:25 235 1 gusting 3 18.9
2016-Feb-10 11:10 235 0 gusting 4 18.9
2016-Feb-10 10:55 232 2 gusting 6 18.3
2016-Feb-10 10:39 287 17.2
2016-Feb-10 10:25 287 16.7
2016-Feb-10 10:09 287 16.1
2016-Feb-10 09:54 287 15.6
2016-Feb-10 09:39 287 15.0
2016-Feb-10 09:24 287 15.0
2016-Feb-10 09:09 287 15.0
2016-Feb-10 08:54 286 15.0
2016-Feb-10 08:39 237 1 gusting 3 14.4
2016-Feb-10 08:23 237 13.9
2016-Feb-10 08:08 237 13.9
2016-Feb-10 07:54 237 13.9
2016-Feb-10 07:39 237 13.3
2016-Feb-10 07:23 237 13.9
2016-Feb-10 07:08 237 14.4
2016-Feb-10 06:53 237 14.4
2016-Feb-10 06:38 236 14.4
2016-Feb-10 06:23 237 15.0
2016-Feb-10 06:07 236 15.6
2016-Feb-10 05:52 232 1 gusting 5 15.6
2016-Feb-10 05:37 328 15.6
2016-Feb-10 05:22 328 3 gusting 8 16.7
2016-Feb-10 05:07 325 4 gusting 7 16.1